• In United Kingdom
  • List of Countries
  • For 7 days
  • Water Temperature
  • Satellite Maps
  • Weather Map
  • Weather Widgets
  • user-avatar
    Login

    Hourly Weather Lankaran

    Today, 23 November, Thursday

    Time Temperature Precipitation Wind Pressure Humidity
    00:00 +1°C° 0.2 mm 4 mps 628 mmHg 84%
    01:00 +1°C° 0.2 mm 4 mps 628 mmHg 84%
    02:00 0°C° 0.2 mm 4 mps 628 mmHg 85%
    03:00 0°C° 0.2 mm 4 mps 628 mmHg 85%
    04:00 0°C° 0.2 mm 4 mps 628 mmHg 85%
    05:00 -1°C° 0.2 mm 4 mps 628 mmHg 85%
    06:00 -1°C° 0.2 mm 4 mps 628 mmHg 85%
    07:00 0°C° 0.1 mm 4 mps 629 mmHg 77%
    08:00 0°C° 0.1 mm 4 mps 629 mmHg 69%
    09:00 +1°C° 0.1 mm 4 mps 630 mmHg 61%
    10:00 +3°C° 0.1 mm 4 mps 630 mmHg 56%
    11:00 +2°C° 0.1 mm 5 mps 630 mmHg 51%
    12:00 +3°C° 0.1 mm 5 mps 630 mmHg 46%
    13:00 +3°C° 0.1 mm 5 mps 630 mmHg 46%
    14:00 +4°C° 0.1 mm 4 mps 630 mmHg 45%
    15:00 +4°C° 0.1 mm 4 mps 630 mmHg 45%
    16:00 +2°C° 0 mm 3 mps 629 mmHg 49%
    17:00 +2°C° 0 mm 2 mps 629 mmHg 54%
    18:00 +1°C° 0 mm 2 mps 629 mmHg 58%
    19:00 +1°C° 0 mm 2 mps 629 mmHg 59%
    20:00 +1°C° 0 mm 2 mps 630 mmHg 59%
    21:00 -1°C° 0 mm 2 mps 630 mmHg 59%
    22:00 -1°C° 0 mm 3 mps 630 mmHg 60%
    23:00 -1°C° 0 mm 3 mps 630 mmHg 61%

    Tomorrow, 24 November, Friday

    Time Temperature Precipitation Wind Pressure Humidity
    00:00 -1°C° 0 mm 3 mps 630 mmHg 62%
    01:00 -2°C° 0 mm 4 mps 630 mmHg 62%
    02:00 -2°C° 0 mm 4 mps 630 mmHg 63%
    03:00 -3°C° 0 mm 4 mps 631 mmHg 63%
    04:00 -3°C° 0 mm 4 mps 631 mmHg 63%
    05:00 -3°C° 0 mm 4 mps 631 mmHg 63%
    06:00 -3°C° 0 mm 4 mps 631 mmHg 63%
    07:00 -3°C° 0 mm 4 mps 631 mmHg 60%
    08:00 -2°C° 0 mm 4 mps 632 mmHg 56%
    09:00 -2°C° 0 mm 4 mps 632 mmHg 53%
    10:00 -1°C° 0.1 mm 4 mps 632 mmHg 53%
    11:00 -1°C° 0.1 mm 4 mps 632 mmHg 52%
    12:00 -1°C° 0.1 mm 4 mps 632 mmHg 52%
    13:00 -1°C° 0.1 mm 4 mps 632 mmHg 53%
    14:00 -1°C° 0.1 mm 4 mps 632 mmHg 55%
    15:00 -2°C° 0.1 mm 4 mps 632 mmHg 57%
    16:00 -3°C° 0.3 mm 4 mps 632 mmHg 63%
    17:00 -2°C° 0.3 mm 3 mps 632 mmHg 69%
    18:00 -3°C° 0.3 mm 2 mps 632 mmHg 75%
    19:00 -3°C° 0.2 mm 2 mps 632 mmHg 76%
    20:00 -4°C° 0.2 mm 2 mps 633 mmHg 78%
    21:00 -4°C° 0.2 mm 2 mps 633 mmHg 79%
    22:00 -4°C° 0.1 mm 2 mps 633 mmHg 77%
    23:00 -4°C° 0.1 mm 2 mps 633 mmHg 76%

    Day after tomorrow, 25 November, Saturday

    Time Temperature Precipitation Wind Pressure Humidity
    00:00 -6°C° 0.1 mm 3 mps 633 mmHg 75%
    01:00 -6°C° 0 mm 3 mps 633 mmHg 74%
    02:00 -6°C° 0 mm 3 mps 633 mmHg 72%
    03:00 -6°C° 0 mm 3 mps 633 mmHg 70%
    04:00 -6°C° 0 mm 3 mps 633 mmHg 69%
    05:00 -6°C° 0 mm 3 mps 634 mmHg 68%
    06:00 -7°C° 0 mm 4 mps 634 mmHg 67%
    07:00 -5°C° 0 mm 4 mps 635 mmHg 62%
    08:00 -4°C° 0 mm 4 mps 635 mmHg 57%
    09:00 -3°C° 0 mm 4 mps 636 mmHg 52%
    10:00 -2°C° 0 mm 4 mps 636 mmHg 48%
    11:00 -1°C° 0 mm 4 mps 637 mmHg 45%
    12:00 -1°C° 0 mm 4 mps 637 mmHg 42%
    13:00 -1°C° 0 mm 4 mps 637 mmHg 43%
    14:00 -1°C° 0 mm 4 mps 637 mmHg 44%
    15:00 -1°C° 0 mm 4 mps 637 mmHg 45%
    16:00 -3°C° 0 mm 4 mps 637 mmHg 51%
    17:00 -4°C° 0 mm 3 mps 637 mmHg 57%
    18:00 -6°C° 0 mm 3 mps 637 mmHg 64%
    19:00 -6°C° 0 mm 3 mps 638 mmHg 65%
    20:00 -5°C° 0 mm 2 mps 638 mmHg 66%
    21:00 -6°C° 0 mm 2 mps 638 mmHg 68%
    22:00 -6°C° 0 mm 2 mps 638 mmHg 68%
    23:00 -6°C° 0 mm 2 mps 638 mmHg 69%

    26 November, Sunday

    Time Temperature Precipitation Wind Pressure Humidity
    00:00 -6°C° 0 mm 2 mps 638 mmHg 69%
    01:00 -4°C° 0 mm 1 mps 638 mmHg 67%
    02:00 -6°C° 0 mm 1 mps 638 mmHg 66%
    03:00 -6°C° 0 mm 1 mps 638 mmHg 64%
    04:00 -6°C° 0 mm 1 mps 638 mmHg 64%
    05:00 -6°C° 0 mm 1 mps 637 mmHg 64%
    06:00 -6°C° 0 mm 1 mps 637 mmHg 64%
    07:00 -3°C° 0 mm 1 mps 638 mmHg 62%
    08:00 -4°C° 0 mm 2 mps 639 mmHg 60%
    09:00 -3°C° 0 mm 2 mps 639 mmHg 58%
    10:00 -2°C° 0 mm 2 mps 639 mmHg 58%
    11:00 -1°C° 0 mm 2 mps 639 mmHg 59%
    12:00 0°C° 0 mm 3 mps 639 mmHg 60%
    13:00 0°C° 0.1 mm 3 mps 638 mmHg 63%
    14:00 0°C° 0.1 mm 3 mps 638 mmHg 67%
    15:00 -1°C° 0.1 mm 3 mps 638 mmHg 70%
    16:00 -1°C° 0.1 mm 2 mps 638 mmHg 75%
    17:00 -2°C° 0.1 mm 2 mps 637 mmHg 80%
    18:00 -3°C° 0.1 mm 2 mps 637 mmHg 85%
    19:00 -3°C° 0 mm 2 mps 637 mmHg 85%
    20:00 -3°C° 0 mm 2 mps 637 mmHg 85%
    21:00 -4°C° 0 mm 2 mps 637 mmHg 85%
    22:00 -4°C° 0 mm 2 mps 637 mmHg 84%
    23:00 -4°C° 0 mm 2 mps 637 mmHg 83%

    27 November, Monday

    Time Temperature Precipitation Wind Pressure Humidity
    00:00 -5°C° 0 mm 2 mps 636 mmHg 81%
    01:00 -5°C° 0 mm 2 mps 636 mmHg 79%
    02:00 -5°C° 0 mm 2 mps 636 mmHg 76%
    03:00 -5°C° 0 mm 2 mps 636 mmHg 73%
    04:00 -5°C° 0 mm 2 mps 636 mmHg 72%
    05:00 -5°C° 0 mm 2 mps 636 mmHg 70%
    06:00 -5°C° 0 mm 2 mps 635 mmHg 69%
    07:00 -3°C° 0 mm 2 mps 636 mmHg 61%
    08:00 -1°C° 0 mm 2 mps 637 mmHg 54%
    09:00 +2°C° 0 mm 2 mps 637 mmHg 47%
    10:00 +3°C° 0 mm 2 mps 637 mmHg 46%
    11:00 +4°C° 0 mm 2 mps 637 mmHg 45%
    12:00 +5°C° 0 mm 2 mps 637 mmHg 43%
    13:00 +5°C° 0 mm 2 mps 636 mmHg 46%
    14:00 +5°C° 0 mm 2 mps 636 mmHg 49%
    15:00 +4°C° 0 mm 2 mps 635 mmHg 53%
    16:00 +3°C° 0 mm 2 mps 635 mmHg 60%
    17:00 +2°C° 0 mm 2 mps 635 mmHg 67%
    18:00 +1°C° 0 mm 1 mps 635 mmHg 74%
    19:00 +1°C° 0 mm 1 mps 634 mmHg 74%
    20:00 -1°C° 0 mm 2 mps 634 mmHg 73%
    21:00 -1°C° 0 mm 2 mps 634 mmHg 73%
    22:00 -1°C° 0 mm 2 mps 634 mmHg 71%
    23:00 +1°C° 0 mm 1 mps 634 mmHg 69%

    28 November, Tuesday

    Time Temperature Precipitation Wind Pressure Humidity
    00:00 +1°C° 0 mm 1 mps 634 mmHg 67%
    01:00 +1°C° 0 mm 1 mps 633 mmHg 67%
    02:00 +1°C° 0 mm 1 mps 633 mmHg 67%
    03:00 +1°C° 0 mm 1 mps 633 mmHg 68%
    04:00 -1°C° 0 mm 2 mps 633 mmHg 68%
    05:00 -1°C° 0 mm 2 mps 633 mmHg 69%
    06:00 -2°C° 0 mm 2 mps 633 mmHg 69%
    07:00 +1°C° 0 mm 2 mps 633 mmHg 64%
    08:00 +2°C° 0 mm 3 mps 634 mmHg 59%
    09:00 +3°C° 0 mm 3 mps 635 mmHg 54%
    10:00 +4°C° 0 mm 3 mps 634 mmHg 52%
    11:00 +5°C° 0 mm 3 mps 634 mmHg 51%
    12:00 +6°C° 0 mm 4 mps 634 mmHg 50%
    13:00 +7°C° 0 mm 3 mps 634 mmHg 51%
    14:00 +7°C° 0 mm 3 mps 633 mmHg 52%
    15:00 +7°C° 0 mm 3 mps 633 mmHg 53%
    16:00 +4°C° 0 mm 3 mps 633 mmHg 56%
    17:00 +3°C° 0 mm 3 mps 633 mmHg 59%
    18:00 +3°C° 0 mm 2 mps 633 mmHg 63%
    19:00 +3°C° 0 mm 2 mps 633 mmHg 62%
    20:00 +1°C° 0 mm 3 mps 633 mmHg 61%
    21:00 +1°C° 0 mm 3 mps 633 mmHg 60%
    22:00 +1°C° 0 mm 3 mps 633 mmHg 59%
    23:00 +1°C° 0 mm 3 mps 633 mmHg 59%
    Show more